Volver al catálogo

STARLINK-35459

ActivoComunicacionesVLEO
NORAD 65856·PAYLOAD·🇺🇸 United States

Lanzado Oct 3, 2025 desde Vandenberg Space Force Base

Loading…

Próximos Pases (próximas 24 horas)

TLE

ActualizadoSource: CelesTrak SupGP

Época: Sep 14, 2026, 21:32 UTC

1 65856C 25223C   26257.89770833 -.00055646  00000+0 -16442-2 0  2574
2 65856  53.1564 131.5836 0001327  86.8741  37.4666 15.34416074    18

Sigue STARLINK-35459 en tiempo real con AllMySat

Download on the App Store